Orbital elements of COSMOS 970 DEB
| Launched | 20 December 1977 |
| Flight ended | – |
| Launch site | Tyuratam Missile and Space Center, Kazakhstan (Also known as Baikonur Cosmodrome) |
| Owner | Commonwealth of Independent States (former USSR) |
| NORAD ID | 10883 |
| Date fetched |
Epoch osculation |
Inc. [°] |
Ecc. | RA asc node [hr] |
Arg Peri. [°] |
Mean anom [°] |
Mean motion [rev/day] |
Abs. mag |
| Date fetched |
Epoch osculation |
Inc. [°] |
Ecc. | RA asc node [hr] |
Arg Peri. [°] |
Mean anom [°] |
Mean motion [rev/day] |
Abs. mag |
| 2026 May 03 17:57 | 2026 Apr 30 14:57:01 | 65.8433 | 0.01105 | 23.0625 | 122.0773 | 259.5725 | 13.76082 | – |
| 2026 May 02 17:57 | 2026 Apr 30 14:57:01 | 65.8433 | 0.01105 | 23.0625 | 122.0773 | 259.5725 | 13.76082 | – |
| 2026 May 01 17:56 | 2026 Apr 30 14:57:01 | 65.8433 | 0.01105 | 23.0625 | 122.0773 | 259.5725 | 13.76082 | – |
| 2026 Apr 30 17:56 | 2026 Apr 30 14:57:01 | 65.8433 | 0.01105 | 23.0625 | 122.0773 | 259.5725 | 13.76082 | – |
| 2026 Apr 29 17:57 | 2026 Apr 24 02:35:28 | 65.8440 | 0.01106 | 0.1373 | 125.5431 | 259.5725 | 13.76082 | – |
| 2026 Apr 28 17:56 | 2026 Apr 24 02:35:28 | 65.8440 | 0.01106 | 0.1373 | 125.5431 | 259.5725 | 13.76082 | – |
| 2026 Apr 27 17:58 | 2026 Apr 24 02:35:28 | 65.8440 | 0.01106 | 0.1373 | 125.5431 | 259.5725 | 13.76082 | – |
| 2026 Apr 26 17:58 | 2026 Apr 24 02:35:28 | 65.8440 | 0.01106 | 0.1373 | 125.5431 | 259.5725 | 13.76082 | – |
| 2026 Apr 25 17:58 | 2026 Apr 24 02:35:28 | 65.8440 | 0.01106 | 0.1373 | 125.5431 | 259.5725 | 13.76082 | – |
| 2026 Apr 24 17:59 | 2026 Apr 24 02:35:28 | 65.8440 | 0.01106 | 0.1373 | 125.5431 | 259.5725 | 13.76082 | – |
| 2026 Apr 23 17:57 | 2026 Apr 19 11:04:19 | 65.8439 | 0.01107 | 0.9039 | 128.0297 | 259.5725 | 13.76082 | – |
| 2026 Apr 22 17:57 | 2026 Apr 19 11:04:19 | 65.8439 | 0.01107 | 0.9039 | 128.0297 | 259.5725 | 13.76082 | – |
| 2026 Apr 21 17:57 | 2026 Apr 19 11:04:19 | 65.8439 | 0.01107 | 0.9039 | 128.0297 | 259.5725 | 13.76082 | – |
| 2026 Apr 20 17:57 | 2026 Apr 19 11:04:19 | 65.8439 | 0.01107 | 0.9039 | 128.0297 | 259.5725 | 13.76082 | – |
| 2026 Apr 19 17:58 | 2026 Apr 19 11:04:19 | 65.8439 | 0.01107 | 0.9039 | 128.0297 | 259.5725 | 13.76082 | – |
| 2026 Apr 18 17:56 | 2026 Apr 13 04:56:12 | 65.8438 | 0.01109 | 1.9359 | 131.4030 | 259.5725 | 13.76082 | – |
| 2026 Apr 16 17:57 | 2026 Apr 13 04:56:12 | 65.8438 | 0.01109 | 1.9359 | 131.4030 | 259.5725 | 13.76082 | – |
| 2026 Apr 14 17:57 | 2026 Apr 13 04:56:12 | 65.8438 | 0.01109 | 1.9359 | 131.4030 | 259.5725 | 13.76082 | – |
| 2026 Apr 13 17:57 | 2026 Apr 13 04:56:12 | 65.8438 | 0.01109 | 1.9359 | 131.4030 | 259.5725 | 13.76082 | – |
| 2026 Apr 12 17:57 | 2026 Apr 08 13:26:12 | 65.8432 | 0.01110 | 2.7023 | 133.9138 | 259.5725 | 13.76082 | – |
| 2026 Apr 11 17:57 | 2026 Apr 08 13:26:12 | 65.8432 | 0.01110 | 2.7023 | 133.9138 | 259.5725 | 13.76082 | – |
| 2026 Apr 10 17:58 | 2026 Apr 08 13:26:12 | 65.8432 | 0.01110 | 2.7023 | 133.9138 | 259.5725 | 13.76082 | – |
| 2026 Apr 09 18:01 | 2026 Apr 08 13:26:12 | 65.8432 | 0.01110 | 2.7023 | 133.9138 | 259.5725 | 13.76082 | – |
| 2026 Apr 08 17:57 | 2026 Apr 08 13:26:12 | 65.8432 | 0.01110 | 2.7023 | 133.9138 | 259.5725 | 13.76082 | – |
| 2026 Apr 07 17:57 | 2026 Apr 02 07:17:40 | 65.8421 | 0.01113 | 3.7343 | 137.2878 | 259.5725 | 13.76082 | – |
| 2026 Apr 06 17:57 | 2026 Apr 02 07:17:40 | 65.8421 | 0.01113 | 3.7343 | 137.2878 | 259.5725 | 13.76082 | – |